Weather reports worldwide

Advertisment
Shoeburyness Landwick, United Kingdom (3693): temperature & dewpoint: 19.09.2017 10:00:00 - 25.09.2017 10:00:00 (BST)Shoeburyness Landwick, United Kingdom (3693): temperature -20cm & temperature -100cm: 19.09.2017 10:00:00 - 25.09.2017 10:00:00 (BST)Shoeburyness Landwick, United Kingdom (3693): wind speed: 19.09.2017 10:00:00 - 25.09.2017 10:00:00 (BST)Shoeburyness Landwick, United Kingdom (3693): wind direction: 19.09.2017 10:00:00 - 25.09.2017 10:00:00 (BST)Shoeburyness Landwick, United Kingdom (3693): reduced air pressure: 19.09.2017 10:00:00 - 25.09.2017 10:00:00 (BST)Shoeburyness Landwick, United Kingdom (3693): visibility: 19.09.2017 10:00:00 - 25.09.2017 10:00:00 (BST)Shoeburyness Landwick, United Kingdom (3693): sunshine duration: 19.09.2017 10:00:00 - 25.09.2017 10:00:00 (BST)Shoeburyness Landwick, United Kingdom (3693): precipitation: 19.09.2017 10:00:00 - 25.09.2017 10:00:00 (BST)
Date & Time tt [°C] td [°C] tt -20cm [°C] tt -100cm [°C] ff [km/h] ff [kn] dd ppp [hPa] vv [km] sd [min] rr [mm]
25.09.2017 10:00:00 17,3 14,5 15,4 15,2 18 10 E 1019,4 8 0 0,0
25.09.2017 09:00:00 16,9 13,8 - - 15 8 E 1019,0 9 0 0,0
25.09.2017 08:00:00 16,4 14,0 - - 13 7 ESE 1019,0 7 0 0,0
25.09.2017 07:00:00 16,0 13,9 - - 11 6 ESE 1018,8 6 0 0,0
25.09.2017 06:00:00 16,0 14,2 - - 15 8 ESE 1018,5 5 0 0,0
25.09.2017 05:00:00 15,9 13,7 - - 15 8 ESE 1018,4 6 0 0,0
25.09.2017 04:00:00 15,8 13,9 - - 15 8 SE 1018,8 7 0 0,0
25.09.2017 03:00:00 16,1 14,0 - - 13 7 SE 1018,9 7 0 0,0
25.09.2017 02:00:00 16,1 14,0 - - 11 6 SE 1019,0 7 0 0,0
25.09.2017 01:00:00 15,9 14,2 - - 11 6 SE 1019,2 5 - 0,0
25.09.2017 00:00:00 16,3 14,3 - - 9 5 SE 1019,7 7 0 0,0
24.09.2017 23:00:00 16,5 14,4 - - 15 8 ESE 1019,6 7 0 0,0
24.09.2017 22:00:00 16,5 14,9 - - 16 9 ESE 1019,7 5 0 0,0
24.09.2017 21:00:00 16,0 14,7 - - 9 5 E 1020,0 3,7 0 0,0
24.09.2017 20:00:00 16,0 14,5 - - 11 6 E 1019,8 4,1 0 0,0
24.09.2017 19:00:00 16,2 14,2 - - 18 10 E 1019,3 4,7 0 0,0
24.09.2017 18:00:00 16,9 14,2 - - 21 11 ESE 1019,3 7 30 0,0
24.09.2017 17:00:00 17,5 14,0 - - 22 12 ESE 1019,7 7 36 0,0
24.09.2017 16:00:00 17,7 13,5 - - 26 14 ESE 1019,8 10 54 0,0
24.09.2017 15:00:00 17,7 12,9 - - 28 15 E 1019,8 12 60 0,0
24.09.2017 14:00:00 18,5 13,0 - - 28 15 E 1019,9 12 60 0,0
24.09.2017 13:00:00 18,8 13,4 - - 28 15 E 1020,5 9 60 0,0
24.09.2017 12:00:00 18,1 13,2 - - 22 12 ESE 1020,8 10 60 0,0
24.09.2017 11:00:00 17,7 13,0 - - 22 12 ESE 1020,9 10 60 0,0
24.09.2017 10:00:00 17,1 12,8 15,0 15,2 18 10 ESE 1021,0 14 60 0,0
24.09.2017 09:00:00 15,9 13,0 - - 18 10 SE 1020,7 9 60 0,0
24.09.2017 08:00:00 15,0 12,1 - - 16 9 SSE 1020,6 10 18 0,0
24.09.2017 07:00:00 14,2 11,2 - - 16 9 SE 1020,2 15 0 0,0
24.09.2017 06:00:00 14,5 10,9 - - 16 9 SE 1020,1 25 0 0,0
24.09.2017 05:00:00 14,9 11,7 - - 18 10 SE 1020,0 16 0 0,0
24.09.2017 04:00:00 15,1 11,9 - - 21 11 SE 1020,3 11 0 0,0
24.09.2017 03:00:00 15,2 12,6 - - 16 9 SE 1020,5 9 0 0,0
24.09.2017 02:00:00 15,3 12,9 - - 15 8 SE 1020,9 7 0 0,0
24.09.2017 01:00:00 15,4 13,3 - - 13 7 SE 1021,1 7 - 0,0
24.09.2017 00:00:00 15,1 13,4 - - 11 6 SE 1021,2 9 0 0,0
23.09.2017 23:00:00 15,4 13,3 - - 16 9 ESE 1021,2 10 0 0,0
23.09.2017 22:00:00 15,2 12,5 - - 15 8 ESE 1021,7 25 0 0,0
23.09.2017 21:00:00 15,2 12,7 - - 15 8 ESE 1021,8 18 0 0,0
23.09.2017 20:00:00 15,3 12,0 - - 13 7 SE 1021,8 19 0 0,0
23.09.2017 19:00:00 15,8 11,1 - - 15 8 SE 1021,5 45 0 0,0
23.09.2017 18:00:00 16,1 11,1 - - 21 11 ESE 1021,6 50 0 0,0
23.09.2017 17:00:00 16,6 10,8 - - 18 10 E 1021,7 50 0 0,0
23.09.2017 16:00:00 16,8 10,6 - - 21 11 ESE 1021,9 40 24 0,0
23.09.2017 15:00:00 18,0 10,8 - - 18 10 ESE 1022,3 35 60 0,0
23.09.2017 14:00:00 17,3 11,1 - - 16 9 SE 1022,8 45 18 0,0
23.09.2017 13:00:00 16,8 11,8 - - 16 9 SSE 1023,2 40 0 0,0
23.09.2017 12:00:00 16,6 12,2 - - 16 9 SSW 1023,3 45 6 0,0
23.09.2017 11:00:00 16,3 13,9 - - 13 7 S 1023,6 35 6 0,0
23.09.2017 10:00:00 15,1 13,4 14,7 15,2 16 9 SSW 1023,6 30 0 0,4
23.09.2017 09:00:00 14,7 12,6 - - 9 5 SSW 1023,5 45 12 0,0
23.09.2017 08:00:00 14,8 12,6 - - 13 7 SSW 1023,0 30 18 0,0
23.09.2017 07:00:00 13,8 11,9 - - 9 5 S 1022,7 50 0 0,0
23.09.2017 06:00:00 13,4 11,7 - - 11 6 SSW 1022,4 40 0 0,0
23.09.2017 05:00:00 12,6 11,3 - - 15 8 SSW 1022,4 40 0 0,0
23.09.2017 04:00:00 11,8 10,5 - - 9 5 SSW 1022,3 35 0 0,0
23.09.2017 03:00:00 11,0 9,8 - - 9 5 SSW 1022,7 40 0 0,0
23.09.2017 02:00:00 10,9 9,5 - - 11 6 SSW 1023,0 35 0 0,0
23.09.2017 01:00:00 11,6 9,7 - - 9 5 SW 1023,1 50 - 0,0
23.09.2017 00:00:00 12,7 10,8 - - 11 6 SW 1022,8 40 0 0,0
22.09.2017 23:00:00 12,5 9,9 - - 9 5 SW 1022,8 45 0 0,0
22.09.2017 22:00:00 12,5 10,4 - - 11 6 SW 1022,8 45 0 0,0
22.09.2017 21:00:00 13,3 9,8 - - 13 7 SW 1022,6 50 0 0,0
22.09.2017 20:00:00 14,5 9,8 - - 11 6 SW 1022,3 50 0 0,0
22.09.2017 19:00:00 15,1 11,1 - - 9 5 SSE 1021,9 50 36 0,0
22.09.2017 18:00:00 16,6 8,5 - - 9 5 SSE 1021,4 50 60 0,0
22.09.2017 17:00:00 17,1 8,5 - - 11 6 SSE 1021,4 45 60 0,0
22.09.2017 16:00:00 17,1 8,3 - - 11 6 S 1021,4 50 60 0,0
22.09.2017 15:00:00 17,3 8,3 - - 11 6 S 1021,5 50 60 0,0
22.09.2017 14:00:00 17,5 8,8 - - 9 5 SW 1021,5 35 60 0,0
22.09.2017 13:00:00 17,2 9,0 - - 9 5 W 1021,8 50 60 0,0
22.09.2017 12:00:00 16,1 8,2 - - 11 6 WSW 1021,8 40 60 0,0
22.09.2017 11:00:00 14,8 10,4 - - 9 5 S 1021,7 15 60 0,0
22.09.2017 10:00:00 13,8 10,3 14,7 15,2 4 2 WNW 1021,7 13 60 0,0
22.09.2017 09:00:00 11,3 9,9 - - 9 5 WNW 1021,4 13 60 0,0
22.09.2017 08:00:00 9,3 9,2 - - 5 3 WNW 1021,1 5 48 0,0
22.09.2017 07:00:00 8,2 8,0 - - 5 3 WNW 1020,6 1,6 0 0,0
22.09.2017 06:00:00 8,9 8,6 - - 9 5 NW 1020,0 2,4 0 0,0
22.09.2017 05:00:00 10,1 9,9 - - 11 6 NW 1019,9 2,8 0 0,0
22.09.2017 04:00:00 11,1 10,9 - - 11 6 WNW 1019,7 3,0 0 0,0
22.09.2017 03:00:00 11,7 11,2 - - 9 5 NW 1019,6 4,8 0 0,0
22.09.2017 02:00:00 11,8 10,9 - - 9 5 WNW 1019,5 11 0 0,0
22.09.2017 01:00:00 12,6 11,5 - - 8 4 WNW 1018,8 19 - 0,0
22.09.2017 00:00:00 13,6 12,2 - - 8 4 WNW 1018,3 20 0 0,0
21.09.2017 23:00:00 14,4 13,0 - - 9 5 W 1017,9 30 0 0,0
21.09.2017 22:00:00 15,1 13,4 - - 15 8 WSW 1017,6 26 0 0,0
21.09.2017 21:00:00 15,3 13,8 - - 13 7 SSW 1017,3 35 0 0,0
21.09.2017 20:00:00 15,3 13,6 - - 18 10 SSW 1016,8 22 0 0,0
21.09.2017 19:00:00 15,9 12,7 - - 18 10 SW 1016,1 30 0 0,0
21.09.2017 18:00:00 17,1 12,1 - - 22 12 SSW 1015,9 50 0 0,0
21.09.2017 17:00:00 17,8 11,5 - - 22 12 SSW 1015,3 45 48 0,0
21.09.2017 16:00:00 19,3 11,3 - - 26 14 SSW 1015,0 35 54 0,0
21.09.2017 15:00:00 19,5 11,2 - - 26 14 SW 1015,1 35 60 0,0
21.09.2017 14:00:00 19,3 11,7 - - 28 15 SSW 1015,1 45 42 0,0
21.09.2017 13:00:00 18,7 11,9 - - 28 15 SSW 1015,3 30 42 0,0
21.09.2017 12:00:00 18,9 11,5 - - 28 15 SW 1015,4 45 48 0,0
21.09.2017 11:00:00 19,2 12,7 - - 26 14 SSW 1015,5 40 54 0,0
21.09.2017 10:00:00 17,4 13,1 14,4 15,4 24 13 S 1015,7 30 12 0,0
21.09.2017 09:00:00 15,6 12,7 - - 24 13 S 1015,6 20 24 0,0
21.09.2017 08:00:00 14,3 12,5 - - 13 7 S 1015,9 26 12 0,0
21.09.2017 07:00:00 13,9 12,1 - - 15 8 S 1015,8 29 0 0,0
21.09.2017 06:00:00 14,1 12,0 - - 18 10 S 1015,6 40 0 0,0
21.09.2017 05:00:00 14,8 12,1 - - 16 9 S 1015,9 45 0 0,0
21.09.2017 04:00:00 14,7 11,8 - - 15 8 S 1016,3 45 0 0,0
21.09.2017 03:00:00 14,5 12,2 - - 15 8 S 1016,7 35 0 0,0
21.09.2017 02:00:00 14,4 12,1 - - 18 10 S 1016,9 35 0 0,0
21.09.2017 01:00:00 13,9 11,9 - - 18 10 S 1017,1 30 - 0,0
21.09.2017 00:00:00 13,3 11,6 - - 13 7 S 1017,4 35 0 0,0
20.09.2017 23:00:00 13,1 11,5 - - 13 7 S 1017,5 29 0 0,0
20.09.2017 22:00:00 13,2 11,6 - - 13 7 SSW 1017,6 30 0 0,0
20.09.2017 21:00:00 13,7 11,4 - - 13 7 SSW 1017,7 45 0 0,0
20.09.2017 20:00:00 14,9 11,2 - - 18 10 SW 1017,7 50 0 0,0
20.09.2017 19:00:00 15,6 12,0 - - 18 10 SW 1017,5 45 30 0,0
20.09.2017 18:00:00 16,3 12,6 - - 18 10 SW 1017,6 40 6 0,0
20.09.2017 17:00:00 16,4 12,2 - - 18 10 SW 1017,9 40 6 0,0
20.09.2017 16:00:00 15,5 12,6 - - 26 14 SSW 1018,6 30 0 0,0
20.09.2017 15:00:00 16,0 12,6 - - 22 12 SSW 1018,7 45 0 0,0
20.09.2017 14:00:00 16,5 11,8 - - 18 10 WSW 1018,9 30 0 0,0
20.09.2017 13:00:00 17,0 11,8 - - 16 9 SW 1019,0 50 6 0,0
20.09.2017 12:00:00 16,8 12,0 - - 15 8 SW 1019,3 26 30 0,0
20.09.2017 11:00:00 16,9 12,2 - - 21 11 SW 1019,7 23 60 0,0
20.09.2017 10:00:00 15,3 11,8 14,0 15,5 13 7 SW 1019,9 27 60 0,0
20.09.2017 09:00:00 13,4 11,7 - - 11 6 WSW 1020,0 14 24 0,0
20.09.2017 08:00:00 12,2 11,5 - - 8 4 SW 1019,8 12 0 0,0
20.09.2017 07:00:00 11,0 10,4 - - 5 3 SW 1020,0 11 0 0,0
20.09.2017 06:00:00 10,6 9,9 - - 8 4 W 1020,2 8 0 0,0
20.09.2017 05:00:00 8,7 8,2 - - 5 3 WSW 1020,2 1,8 0 0,0
20.09.2017 04:00:00 10,0 9,5 - - 5 3 WSW 1020,4 10 0 0,0
20.09.2017 03:00:00 10,3 9,7 - - 8 4 WSW 1020,7 11 0 0,0
20.09.2017 02:00:00 10,6 9,7 - - 9 5 WSW 1021,0 15 0 0,0
20.09.2017 01:00:00 8,6 7,6 - - 8 4 W 1021,4 17 - 0,0
20.09.2017 00:00:00 8,3 6,1 - - 5 3 WSW 1021,5 18 0 0,0
19.09.2017 23:00:00 10,9 8,4 - - 11 6 SW 1021,8 35 0 0,0
19.09.2017 22:00:00 10,6 8,5 - - 8 4 WSW 1021,9 19 0 0,0
19.09.2017 21:00:00 9,1 6,2 - - 5 3 WSW 1021,8 16 0 0,0
19.09.2017 20:00:00 12,0 8,8 - - 8 4 WSW 1021,8 19 0 0,0
19.09.2017 19:00:00 12,7 8,8 - - 5 3 W 1021,7 45 6 0,0
19.09.2017 18:00:00 14,4 8,5 - - 9 5 WSW 1021,6 35 24 0,0
19.09.2017 17:00:00 14,1 9,3 - - 11 6 SW 1021,6 40 42 0,0
19.09.2017 16:00:00 14,9 8,8 - - 11 6 SW 1021,8 40 48 0,0
19.09.2017 15:00:00 14,0 9,2 - - 9 5 NW 1022,3 40 0 0,0
19.09.2017 14:00:00 13,4 9,5 - - 13 7 NNW 1021,9 30 12 0,0
19.09.2017 13:00:00 12,8 9,6 - - 13 7 NW 1022,0 22 0 0,0
19.09.2017 12:00:00 12,2 9,8 - - 18 10 NW 1021,9 18 0 0,0
19.09.2017 11:00:00 12,8 10,3 - - 18 10 WNW 1021,4 14 42 0,0
19.09.2017 10:00:00 11,6 9,9 14,5 15,7 15 8 NW 1020,9 10 24 0,0

tt = temperature
td = dewpoint
tt -20cm = temperature -20cm
tt -100cm = temperature -100cm
ff = wind speed
dd = wind direction
ppp = reduced air pressure
vv = visibility
sd = sunshine duration
rr = precipitation

Next stations